Torna al catalogo

STARLINK-36487

AttivoComunicazioniVLEO
NORAD 67416·PAYLOAD·🇺🇸 United States

Lanciato Jan 12, 2026 da Cape Canaveral Space Force Station

Loading…

Prossimi Passaggi (prossime 24 ore)

TLE

AggiornatoSource: CelesTrak SupGP

Epoca: Sep 15, 2026, 03:55 UTC

1 67416C 26005N   26258.16368056 -.00041212  00000+0 -14930-2 0  2583
2 67416  43.0004 248.2117 0001345 267.3781 355.0127 15.27592105    10

Traccia STARLINK-36487 in tempo reale con AllMySat

Download on the App Store